Station Historical Data
Daily Summary for March 8, 2012 Units:  English    Metric   Both
« Previous Day
Next Day »
Daily Weekly Monthly Yearly Custom
  High: Low: Average:
Temperature: 70.0 °F 42.8 °F 59.3 °F
Dew Point: 60.7 °F 41.5 °F 52.8 °F
Humidity: 96% 65% 80%
Wind Speed: 22.0mph 2.0mph 8.8mph
Wind Gust: 27.0mph - -
Wind- - SSE
Pressure: 30.23 in 30.01 in -
Precipitation: 1.38 in    
Historical Graphs
 
 
Tabular Data for March 8, 2012
Time Temperature Dew Point Pressure Wind Wind Speed Wind Gust Humidity Rainfall Rate (Hourly) Conditions
00:00 62.2 °F 51.1 °F 30.21 in SSE 10.0 mph 11.0 mph 67% 0.00 in
00:01 62.2 °F 51.1 °F 30.21 in SE 7.0 mph 10.0 mph 67% 0.00 in
00:06 62.2 °F 51.1 °F 30.21 in SSE 6.0 mph 10.0 mph 67% 0.00 in
00:11 62.1 °F 51.0 °F 30.21 in SE 9.0 mph 9.0 mph 67% 0.00 in
00:16 62.1 °F 51.0 °F 30.21 in SE 9.0 mph 12.0 mph 67% 0.00 in
00:21 62.0 °F 50.9 °F 30.21 in SSE 9.0 mph 12.0 mph 67% 0.00 in
00:27 62.0 °F 50.9 °F 30.21 in SSE 8.0 mph 14.0 mph 67% 0.00 in
00:32 62.0 °F 50.9 °F 30.21 in SE 10.0 mph 12.0 mph 67% 0.00 in
00:37 62.0 °F 50.9 °F 30.21 in SE 7.0 mph 10.0 mph 67% 0.00 in
00:42 61.8 °F 51.1 °F 30.21 in SSE 8.0 mph 11.0 mph 68% 0.00 in
00:47 61.8 °F 51.1 °F 30.21 in SE 6.0 mph 8.0 mph 68% 0.00 in
00:52 61.7 °F 51.0 °F 30.21 in SSE 6.0 mph 12.0 mph 68% 0.00 in
00:57 61.7 °F 51.0 °F 30.21 in SE 10.0 mph 13.0 mph 68% 0.00 in
01:02 61.6 °F 51.0 °F 30.21 in SSE 7.0 mph 8.0 mph 68% 0.00 in
01:07 61.5 °F 50.8 °F 30.21 in SE 7.0 mph 10.0 mph 68% 0.00 in
01:12 61.3 °F 51.1 °F 30.21 in SSE 8.0 mph 11.0 mph 69% 0.00 in
01:17 61.3 °F 51.1 °F 30.21 in SE 12.0 mph 12.0 mph 69% 0.00 in
01:22 61.2 °F 51.0 °F 30.22 in SSE 8.0 mph 12.0 mph 69% 0.00 in
01:27 61.1 °F 50.9 °F 30.22 in SSE 10.0 mph 11.0 mph 69% 0.00 in
01:32 61.0 °F 50.8 °F 30.22 in SSE 8.0 mph 8.0 mph 69% 0.00 in
01:37 61.0 °F 50.8 °F 30.22 in SE 4.0 mph 12.0 mph 69% 0.00 in
01:43 60.9 °F 50.7 °F 30.22 in SE 11.0 mph 11.0 mph 69% 0.00 in
01:48 60.9 °F 50.7 °F 30.22 in SE 8.0 mph 10.0 mph 69% 0.00 in
01:53 60.9 °F 50.7 °F 30.22 in SE 9.0 mph 11.0 mph 69% 0.00 in
01:58 60.9 °F 50.7 °F 30.22 in SSE 9.0 mph 11.0 mph 69% 0.00 in
02:03 60.8 °F 50.6 °F 30.22 in SE 7.0 mph 9.0 mph 69% 0.00 in
02:08 60.6 °F 50.8 °F 30.22 in SE 7.0 mph 9.0 mph 70% 0.00 in
02:13 60.5 °F 50.7 °F 30.22 in SSE 8.0 mph 10.0 mph 70% 0.00 in
02:18 60.5 °F 50.7 °F 30.22 in ESE 5.0 mph 11.0 mph 70% 0.00 in
02:23 60.3 °F 50.5 °F 30.21 in SE 7.0 mph 7.0 mph 70% 0.00 in
02:28 60.2 °F 50.8 °F 30.21 in SE 4.0 mph 9.0 mph 71% 0.00 in
02:33 60.1 °F 50.7 °F 30.21 in SE 6.0 mph 6.0 mph 71% 0.00 in
02:38 60.0 °F 50.6 °F 30.21 in SE 6.0 mph 11.0 mph 71% 0.00 in
02:43 60.0 °F 50.6 °F 30.21 in SE 7.0 mph 10.0 mph 71% 0.00 in
02:48 59.9 °F 50.5 °F 30.20 in SE 6.0 mph 9.0 mph 71% 0.00 in
02:53 59.8 °F 50.8 °F 30.20 in SE 5.0 mph 9.0 mph 72% 0.00 in
02:58 59.7 °F 50.7 °F 30.20 in SE 5.0 mph 9.0 mph 72% 0.00 in
03:03 59.7 °F 50.7 °F 30.20 in SE 6.0 mph 9.0 mph 72% 0.00 in
03:08 59.6 °F 50.6 °F 30.20 in SSE 6.0 mph 9.0 mph 72% 0.00 in
03:13 59.5 °F 50.5 °F 30.20 in SSE 5.0 mph 10.0 mph 72% 0.00 in
03:18 59.5 °F 50.5 °F 30.19 in SE 6.0 mph 10.0 mph 72% 0.00 in
03:23 59.4 °F 50.4 °F 30.19 in ESE 6.0 mph 9.0 mph 72% 0.00 in
03:28 59.3 °F 50.3 °F 30.19 in SE 6.0 mph 9.0 mph 72% 0.00 in
03:33 59.1 °F 50.5 °F 30.19 in SSE 6.0 mph 7.0 mph 73% 0.00 in
03:38 58.9 °F 50.3 °F 30.19 in SSE 5.0 mph 8.0 mph 73% 0.00 in
03:43 58.8 °F 50.2 °F 30.19 in SSE 7.0 mph 8.0 mph 73% 0.00 in
03:48 58.6 °F 50.3 °F 30.18 in ESE 6.0 mph 9.0 mph 74% 0.00 in
03:53 58.6 °F 50.3 °F 30.19 in SE 7.0 mph 8.0 mph 74% 0.00 in
03:58 58.6 °F 50.3 °F 30.18 in SE 8.0 mph 9.0 mph 74% 0.00 in
04:03 58.6 °F 50.3 °F 30.18 in SE 7.0 mph 10.0 mph 74% 0.00 in
04:08 58.5 °F 50.2 °F 30.18 in SE 5.0 mph 10.0 mph 74% 0.00 in
04:13 58.4 °F 50.2 °F 30.18 in SE 7.0 mph 12.0 mph 74% 0.00 in
04:18 58.3 °F 50.4 °F 30.18 in SE 8.0 mph 11.0 mph 75% 0.00 in
04:23 58.3 °F 50.4 °F 30.18 in SE 6.0 mph 12.0 mph 75% 0.00 in
04:28 58.2 °F 50.3 °F 30.18 in SE 8.0 mph 12.0 mph 75% 0.00 in
04:33 58.2 °F 50.3 °F 30.18 in SE 6.0 mph 11.0 mph 75% 0.00 in
04:38 58.2 °F 50.3 °F 30.18 in SE 6.0 mph 8.0 mph 75% 0.00 in
04:43 58.1 °F 50.2 °F 30.17 in SE 6.0 mph 9.0 mph 75% 0.00 in
04:48 57.8 °F 50.3 °F 30.16 in SE 10.0 mph 10.0 mph 76% 0.00 in
04:53 57.9 °F 50.0 °F 30.16 in SE 8.0 mph 15.0 mph 75% 0.00 in
04:58 57.8 °F 49.9 °F 30.16 in SE 11.0 mph 15.0 mph 75% 0.00 in
05:03 57.8 °F 50.3 °F 30.16 in SE 11.0 mph 15.0 mph 76% 0.00 in
05:08 57.5 °F 50.0 °F 30.15 in SE 9.0 mph 13.0 mph 76% 0.00 in
05:13 57.4 °F 49.9 °F 30.15 in SE 7.0 mph 12.0 mph 76% 0.00 in
05:18 57.4 °F 50.3 °F 30.15 in SE 11.0 mph 16.0 mph 77% 0.00 in
05:23 57.3 °F 50.2 °F 30.15 in SE 10.0 mph 14.0 mph 77% 0.00 in
05:29 57.3 °F 50.2 °F 30.15 in ESE 9.0 mph 17.0 mph 77% 0.00 in
05:34 57.2 °F 50.1 °F 30.15 in SE 13.0 mph 15.0 mph 77% 0.00 in
05:39 57.2 °F 50.1 °F 30.15 in ESE 9.0 mph 16.0 mph 77% 0.00 in
05:44 57.2 °F 50.1 °F 30.14 in SE 10.0 mph 14.0 mph 77% 0.00 in
05:49 57.2 °F 50.1 °F 30.14 in SE 12.0 mph 14.0 mph 77% 0.00 in
05:54 57.1 °F 50.0 °F 30.14 in SE 10.0 mph 16.0 mph 77% 0.00 in
05:59 57.1 °F 50.3 °F 30.14 in SE 6.0 mph 14.0 mph 78% 0.00 in
06:04 57.1 °F 50.3 °F 30.15 in SSE 11.0 mph 13.0 mph 78% 0.00 in
06:09 57.1 °F 50.3 °F 30.16 in SE 12.0 mph 12.0 mph 78% 0.00 in
06:14 57.3 °F 50.5 °F 30.16 in SE 9.0 mph 14.0 mph 78% 0.00 in
06:19 57.4 °F 50.3 °F 30.15 in SE 10.0 mph 14.0 mph 77% 0.00 in
06:24 57.4 °F 50.3 °F 30.14 in SE 12.0 mph 14.0 mph 77% 0.00 in
06:29 57.5 °F 50.4 °F 30.14 in SE 12.0 mph 16.0 mph 77% 0.00 in
06:34 57.6 °F 50.5 °F 30.14 in SE 9.0 mph 15.0 mph 77% 0.00 in
06:39 57.6 °F 50.5 °F 30.14 in SE 10.0 mph 12.0 mph 77% 0.00 in
06:44 57.7 °F 50.5 °F 30.15 in SE 8.0 mph 14.0 mph 77% 0.00 in
06:49 57.7 °F 50.9 °F 30.15 in SE 8.0 mph 11.0 mph 78% 0.00 in
06:54 57.9 °F 50.7 °F 30.15 in SSE 11.0 mph 16.0 mph 77% 0.00 in
06:59 57.8 °F 51.0 °F 30.16 in SE 7.0 mph 9.0 mph 78% 0.00 in
07:04 57.6 °F 50.8 °F 30.16 in SSE 9.0 mph 9.0 mph 78% 0.00 in
07:09 57.8 °F 51.0 °F 30.16 in SSE 6.0 mph 14.0 mph 78% 0.00 in
07:14 57.9 °F 51.1 °F 30.16 in SSE 9.0 mph 11.0 mph 78% 0.00 in
07:19 57.9 °F 51.1 °F 30.16 in South 8.0 mph 11.0 mph 78% 0.00 in
07:24 58.0 °F 51.2 °F 30.15 in SE 10.0 mph 13.0 mph 78% 0.00 in
07:29 58.2 °F 51.4 °F 30.14 in SE 7.0 mph 13.0 mph 78% 0.00 in
07:34 58.3 °F 51.5 °F 30.14 in SSE 11.0 mph 15.0 mph 78% 0.00 in
07:39 58.3 °F 51.5 °F 30.15 in SSE 14.0 mph 14.0 mph 78% 0.00 in
07:44 58.5 °F 51.7 °F 30.15 in SE 11.0 mph 17.0 mph 78% 0.00 in
07:49 58.5 °F 51.7 °F 30.15 in SSE 7.0 mph 11.0 mph 78% 0.00 in
07:54 58.5 °F 51.7 °F 30.15 in ESE 8.0 mph 12.0 mph 78% 0.00 in
07:59 58.6 °F 51.8 °F 30.15 in SSE 12.0 mph 15.0 mph 78% 0.00 in
08:04 58.6 °F 51.8 °F 30.13 in South 7.0 mph 14.0 mph 78% 0.00 in
08:09 58.8 °F 52.0 °F 30.14 in ESE 11.0 mph 16.0 mph 78% 0.00 in
08:14 58.8 °F 52.0 °F 30.15 in SSE 11.0 mph 16.0 mph 78% 0.00 in
08:19 58.8 °F 52.0 °F 30.15 in SE 8.0 mph 14.0 mph 78% 0.00 in
08:24 58.8 °F 52.0 °F 30.14 in SSE 12.0 mph 15.0 mph 78% 0.00 in
08:29 58.8 °F 52.0 °F 30.14 in SE 15.0 mph 16.0 mph 78% 0.00 in
08:34 59.0 °F 52.2 °F 30.15 in SSE 14.0 mph 15.0 mph 78% 0.00 in
08:39 59.1 °F 52.3 °F 30.15 in SE 12.0 mph 17.0 mph 78% 0.00 in
08:44 59.2 °F 52.3 °F 30.14 in SE 10.0 mph 16.0 mph 78% 0.00 in
08:50 59.2 °F 52.3 °F 30.14 in SSE 14.0 mph 19.0 mph 78% 0.00 in
08:55 59.2 °F 52.3 °F 30.14 in SSE 12.0 mph 16.0 mph 78% 0.00 in
09:00 59.2 °F 52.3 °F 30.14 in SSE 12.0 mph 16.0 mph 78% 0.00 in
09:05 59.4 °F 52.5 °F 30.14 in SE 11.0 mph 13.0 mph 78% 0.00 in
09:10 59.6 °F 52.7 °F 30.14 in SE 20.0 mph 20.0 mph 78% 0.00 in
09:15 59.7 °F 52.8 °F 30.13 in SSE 13.0 mph 15.0 mph 78% 0.00 in
09:20 59.8 °F 52.9 °F 30.12 in SSE 11.0 mph 23.0 mph 78% 0.00 in
09:25 59.9 °F 53.0 °F 30.13 in SE 16.0 mph 16.0 mph 78% 0.00 in
09:30 60.0 °F 53.1 °F 30.14 in SE 10.0 mph 17.0 mph 78% 0.00 in
09:35 60.3 °F 53.4 °F 30.13 in SE 6.0 mph 19.0 mph 78% 0.00 in
09:40 60.6 °F 53.4 °F 30.14 in SE 14.0 mph 14.0 mph 77% 0.00 in
09:45 60.5 °F 53.3 °F 30.14 in South 5.0 mph 17.0 mph 77% 0.00 in
09:50 60.6 °F 53.4 °F 30.14 in SSE 11.0 mph 19.0 mph 77% 0.00 in
09:55 60.8 °F 53.5 °F 30.13 in SSE 12.0 mph 15.0 mph 77% 0.00 in
10:00 61.2 °F 53.6 °F 30.13 in SE 16.0 mph 16.0 mph 76% 0.00 in
10:05 61.4 °F 53.8 °F 30.14 in SE 13.0 mph 15.0 mph 76% 0.00 in
10:10 61.7 °F 54.1 °F 30.14 in South 10.0 mph 17.0 mph 76% 0.00 in
10:15 62.1 °F 54.1 °F 30.14 in SSE 10.0 mph 20.0 mph 75% 0.00 in
10:20 62.5 °F 54.5 °F 30.14 in SW 9.0 mph 12.0 mph 75% 0.00 in
10:25 62.8 °F 54.8 °F 30.14 in SE 11.0 mph 16.0 mph 75% 0.00 in
10:30 63.4 °F 55.3 °F 30.14 in SSE 11.0 mph 16.0 mph 75% 0.00 in
10:35 64.0 °F 55.6 °F 30.14 in SE 12.0 mph 18.0 mph 74% 0.00 in
10:40 64.5 °F 54.9 °F 30.13 in SE 13.0 mph 20.0 mph 71% 0.00 in
10:45 64.5 °F 55.3 °F 30.14 in SW 14.0 mph 18.0 mph 72% 0.00 in
10:50 65.0 °F 56.2 °F 30.13 in South 10.0 mph 16.0 mph 73% 0.00 in
10:55 65.3 °F 56.0 °F 30.14 in SSE 9.0 mph 13.0 mph 72% 0.00 in
11:00 64.9 °F 55.3 °F 30.14 in SSE 12.0 mph 15.0 mph 71% 0.00 in
11:05 64.7 °F 55.5 °F 30.13 in SE 8.0 mph 14.0 mph 72% 0.00 in
11:10 64.3 °F 55.5 °F 30.13 in SE 5.0 mph 15.0 mph 73% 0.00 in
11:15 63.9 °F 55.5 °F 30.12 in South 5.0 mph 19.0 mph 74% 0.00 in
11:20 63.7 °F 55.6 °F 30.12 in SSE 11.0 mph 19.0 mph 75% 0.00 in
11:25 63.7 °F 55.6 °F 30.12 in South 6.0 mph 17.0 mph 75% 0.00 in
11:30 63.8 °F 56.1 °F 30.12 in South 6.0 mph 18.0 mph 76% 0.00 in
11:35 64.7 °F 57.0 °F 30.12 in SSE 8.0 mph 11.0 mph 76% 0.00 in
11:36 64.8 °F 56.7 °F 30.12 in SSE 11.0 mph 11.0 mph 75% 0.00 in
11:41 65.2 °F 57.1 °F 30.12 in SE 5.0 mph 13.0 mph 75% 0.00 in
11:46 65.6 °F 57.1 °F 30.11 in South 12.0 mph 12.0 mph 74% 0.00 in
11:51 65.9 °F 56.6 °F 30.11 in SSE 13.0 mph 14.0 mph 72% 0.00 in
11:56 66.3 °F 56.6 °F 30.11 in SSW 5.0 mph 12.0 mph 71% 0.00 in
12:01 66.6 °F 56.9 °F 30.11 in SW 15.0 mph 17.0 mph 71% 0.00 in
12:06 67.3 °F 57.2 °F 30.10 in South 5.0 mph 14.0 mph 70% 0.00 in
12:11 67.8 °F 57.7 °F 30.10 in SW 12.0 mph 18.0 mph 70% 0.00 in
12:16 67.8 °F 56.9 °F 30.10 in SSE 13.0 mph 19.0 mph 68% 0.00 in
12:21 67.9 °F 57.4 °F 30.09 in SSE 10.0 mph 20.0 mph 69% 0.00 in
12:26 67.9 °F 57.0 °F 30.09 in SSE 17.0 mph 17.0 mph 68% 0.00 in
12:32 67.6 °F 56.7 °F 30.09 in SSE 18.0 mph 22.0 mph 68% 0.00 in
12:37 67.5 °F 57.0 °F 30.09 in SW 9.0 mph 21.0 mph 69% 0.00 in
12:42 67.6 °F 57.1 °F 30.09 in SE 6.0 mph 22.0 mph 69% 0.00 in
12:47 67.5 °F 57.0 °F 30.09 in SSW 9.0 mph 18.0 mph 69% 0.00 in
12:52 67.2 °F 56.7 °F 30.08 in South 12.0 mph 24.0 mph 69% 0.00 in
12:57 67.1 °F 57.0 °F 30.08 in SE 10.0 mph 18.0 mph 70% 0.00 in
13:02 67.3 °F 57.2 °F 30.08 in SW 14.0 mph 17.0 mph 70% 0.00 in
13:07 67.5 °F 57.0 °F 30.07 in SE 8.0 mph 18.0 mph 69% 0.00 in
13:12 68.1 °F 57.6 °F 30.07 in SSW 7.0 mph 17.0 mph 69% 0.00 in
13:17 68.7 °F 57.7 °F 30.07 in SSE 14.0 mph 16.0 mph 68% 0.00 in
13:22 69.6 °F 58.2 °F 30.07 in SSE 15.0 mph 17.0 mph 67% 0.00 in
13:27 70.0 °F 58.5 °F 30.06 in SSW 11.0 mph 21.0 mph 67% 0.00 in
13:32 70.0 °F 58.1 °F 30.06 in SSE 6.0 mph 13.0 mph 66% 0.00 in
13:37 70.0 °F 57.7 °F 30.06 in SSW 17.0 mph 17.0 mph 65% 0.00 in
13:42 69.8 °F 57.5 °F 30.06 in SSE 11.0 mph 23.0 mph 65% 0.00 in
13:43 69.8 °F 57.5 °F 30.06 in South 13.0 mph 23.0 mph 65% 0.00 in
13:49 69.8 °F 57.5 °F 30.05 in SSE 16.0 mph 16.0 mph 65% 0.00 in
13:54 69.6 °F 57.8 °F 30.05 in SSE 11.0 mph 21.0 mph 66% 0.00 in
13:59 69.7 °F 57.4 °F 30.05 in South 18.0 mph 18.0 mph 65% 0.00 in
14:04 69.7 °F 57.4 °F 30.05 in South 10.0 mph 16.0 mph 65% 0.00 in
14:09 69.6 °F 57.8 °F 30.05 in SSE 15.0 mph 16.0 mph 66% 0.00 in
14:14 69.6 °F 57.3 °F 30.04 in SSE 12.0 mph 17.0 mph 65% 0.00 in
14:19 69.7 °F 57.8 °F 30.04 in SSE 6.0 mph 14.0 mph 66% 0.00 in
14:24 69.8 °F 57.5 °F 30.04 in SSE 9.0 mph 15.0 mph 65% 0.00 in
14:29 69.8 °F 58.4 °F 30.04 in SW 8.0 mph 15.0 mph 67% 0.00 in
14:34 69.7 °F 57.8 °F 30.04 in SSW 7.0 mph 15.0 mph 66% 0.00 in
14:39 69.5 °F 58.1 °F 30.04 in SW 6.0 mph 13.0 mph 67% 0.00 in
14:44 69.2 °F 58.2 °F 30.04 in South 7.0 mph 11.0 mph 68% 0.00 in
14:49 68.9 °F 58.3 °F 30.04 in SSE 10.0 mph 11.0 mph 69% 0.00 in
14:54 68.4 °F 58.6 °F 30.03 in South 7.0 mph 12.0 mph 71% 0.00 in
14:59 67.7 °F 58.7 °F 30.04 in SSW 4.0 mph 11.0 mph 73% 0.00 in
15:04 67.2 °F 58.6 °F 30.04 in SSW 4.0 mph 11.0 mph 74% 0.00 in
15:09 66.7 °F 59.3 °F 30.04 in SSW 6.0 mph 10.0 mph 77% 0.00 in
15:14 66.0 °F 59.3 °F 30.04 in SSW 5.0 mph 8.0 mph 79% 0.00 in
15:19 65.3 °F 59.7 °F 30.03 in South 4.0 mph 8.0 mph 82% 0.17 in
15:24 64.7 °F 60.1 °F 30.04 in SW 4.0 mph 5.0 mph 85% 0.14 in
15:29 64.3 °F 60.3 °F 30.03 in SSW 2.0 mph 5.0 mph 87% 0.07 in
15:34 64.0 °F 60.4 °F 30.03 in SSW 2.0 mph 3.0 mph 88% 0.04 in
15:39 63.8 °F 60.2 °F 30.04 in SSE 3.0 mph 5.0 mph 88% 0.00 in
15:44 63.7 °F 60.1 °F 30.03 in SSW 4.0 mph 4.0 mph 88% 0.16 in
15:49 63.7 °F 60.4 °F 30.03 in SSE 3.0 mph 5.0 mph 89% 0.08 in
15:54 63.6 °F 60.3 °F 30.02 in South 3.0 mph 5.0 mph 89% 0.05 in
15:59 63.8 °F 60.2 °F 30.02 in SSW 4.0 mph 6.0 mph 88% 0.00 in
16:04 63.9 °F 60.3 °F 30.02 in SSE 5.0 mph 7.0 mph 88% 0.00 in
16:09 63.9 °F 60.3 °F 30.02 in South 5.0 mph 6.0 mph 88% 0.00 in
16:14 63.9 °F 60.6 °F 30.01 in South 5.0 mph 7.0 mph 89% 0.00 in
16:19 64.0 °F 60.7 °F 30.01 in South 6.0 mph 7.0 mph 89% 0.00 in
16:24 64.1 °F 60.5 °F 30.01 in SE 4.0 mph 9.0 mph 88% 0.00 in
16:28 64.3 °F 60.7 °F 30.01 in SSE 8.0 mph 8.0 mph 88% 0.00 in
16:33 64.3 °F 60.3 °F 30.01 in SSE 5.0 mph 6.0 mph 87% 0.00 in
16:38 64.4 °F 60.5 °F 30.01 in SSE 7.0 mph 8.0 mph 87% 0.00 in
16:43 64.6 °F 60.3 °F 30.01 in SSW 5.0 mph 8.0 mph 86% 0.00 in
16:48 64.7 °F 60.4 °F 30.01 in South 4.0 mph 8.0 mph 86% 0.00 in
16:53 64.8 °F 60.5 °F 30.01 in SSW 7.0 mph 7.0 mph 86% 0.00 in
16:58 64.9 °F 60.3 °F 30.01 in South 6.0 mph 10.0 mph 85% 0.00 in
17:03 64.9 °F 60.3 °F 30.01 in SSE 5.0 mph 7.0 mph 85% 0.00 in
17:08 64.7 °F 60.4 °F 30.01 in South 5.0 mph 5.0 mph 86% 0.00 in
17:14 64.7 °F 60.4 °F 30.01 in South 4.0 mph 6.0 mph 86% 0.00 in
17:19 64.9 °F 60.3 °F 30.01 in SSE 2.0 mph 7.0 mph 85% 0.00 in
17:24 64.9 °F 60.3 °F 30.01 in South 5.0 mph 6.0 mph 85% 0.00 in
17:29 65.1 °F 60.5 °F 30.01 in South 3.0 mph 5.0 mph 85% 0.00 in
17:34 65.0 °F 60.4 °F 30.01 in SSW 2.0 mph 5.0 mph 85% 0.00 in
17:39 65.0 °F 60.4 °F 30.02 in WNW 4.0 mph 6.0 mph 85% 0.00 in
17:44 64.4 °F 60.5 °F 30.04 in NW 11.0 mph 13.0 mph 87% 0.00 in
17:49 62.8 °F 58.6 °F 30.05 in NNW 10.0 mph 21.0 mph 86% 0.00 in
17:54 61.3 °F 58.0 °F 30.06 in NW 13.0 mph 13.0 mph 89% 0.05 in
17:59 60.3 °F 57.7 °F 30.03 in NE 13.0 mph 21.0 mph 91% 0.39 in
18:04 59.7 °F 57.4 °F 30.06 in North 6.0 mph 18.0 mph 92% 0.56 in
18:09 59.2 °F 56.9 °F 30.04 in NNW 16.0 mph 18.0 mph 92% 0.35 in
18:14 58.8 °F 56.5 °F 30.05 in North 13.0 mph 16.0 mph 92% 0.18 in
18:20 58.6 °F 56.6 °F 30.05 in NNE 8.0 mph 14.0 mph 93% 2.15 in
18:25 58.4 °F 56.7 °F 30.07 in NNW 8.0 mph 11.0 mph 94% 0.36 in
18:30 58.4 °F 56.7 °F 30.07 in North 8.0 mph 10.0 mph 94% 0.36 in
18:35 58.4 °F 56.7 °F 30.06 in North 6.0 mph 7.0 mph 94% 0.24 in
18:40 58.4 °F 56.7 °F 30.07 in NW 7.0 mph 8.0 mph 94% 0.14 in
18:45 58.4 °F 56.7 °F 30.07 in North 6.0 mph 10.0 mph 94% 0.51 in
18:48 58.4 °F 56.7 °F 30.08 in NW 8.0 mph 10.0 mph 94% 0.35 in
18:53 58.4 °F 57.0 °F 30.11 in NW 10.0 mph 13.0 mph 95% 0.52 in
18:58 58.3 °F 56.9 °F 30.08 in North 9.0 mph 16.0 mph 95% 1.30 in
19:03 58.0 °F 56.3 °F 30.09 in NNW 8.0 mph 18.0 mph 94% 0.47 in
19:08 57.7 °F 56.0 °F 30.08 in NNW 12.0 mph 15.0 mph 94% 0.16 in
19:13 57.4 °F 55.7 °F 30.09 in NW 17.0 mph 17.0 mph 94% 0.10 in
19:19 56.8 °F 55.1 °F 30.12 in NW 14.0 mph 16.0 mph 94% 0.06 in
19:24 56.3 °F 54.6 °F 30.14 in NNW 17.0 mph 24.0 mph 94% 0.47 in
19:29 55.1 °F 53.1 °F 30.13 in NNW 22.0 mph 23.0 mph 93% 0.22 in
19:34 53.5 °F 51.2 °F 30.14 in North 18.0 mph 27.0 mph 92% 0.13 in
19:39 52.6 °F 50.6 °F 30.14 in WNW 10.0 mph 22.0 mph 93% 0.06 in
19:44 52.1 °F 50.4 °F 30.16 in North 16.0 mph 24.0 mph 94% 0.05 in
19:49 51.6 °F 49.9 °F 30.16 in NNW 14.0 mph 19.0 mph 94% 0.19 in
19:54 50.6 °F 48.7 °F 30.14 in NNW 17.0 mph 21.0 mph 93% 0.20 in
19:59 49.9 °F 48.2 °F 30.14 in NNE 18.0 mph 18.0 mph 94% 0.20 in
20:04 49.7 °F 48.0 °F 30.14 in NNE 9.0 mph 18.0 mph 94% 0.17 in
20:09 49.5 °F 48.1 °F 30.14 in NNE 11.0 mph 18.0 mph 95% 0.12 in
20:15 49.4 °F 48.0 °F 30.13 in NNE 13.0 mph 20.0 mph 95% 0.10 in
20:20 49.1 °F 47.7 °F 30.13 in NNE 12.0 mph 15.0 mph 95% 0.12 in
20:25 48.5 °F 46.9 °F 30.14 in NNE 8.0 mph 16.0 mph 94% 0.11 in
20:30 48.1 °F 46.5 °F 30.14 in North 8.0 mph 16.0 mph 94% 0.07 in
20:35 47.8 °F 46.2 °F 30.14 in NNE 10.0 mph 16.0 mph 94% 0.09 in
20:36 47.7 °F 46.1 °F 30.15 in North 6.0 mph 16.0 mph 94% 0.09 in
20:41 47.5 °F 45.9 °F 30.16 in NNE 11.0 mph 16.0 mph 94% 0.14 in
20:46 47.4 °F 46.0 °F 30.17 in NNE 4.0 mph 11.0 mph 95% 0.19 in
20:51 47.3 °F 45.9 °F 30.17 in NNE 4.0 mph 11.0 mph 95% 0.20 in
20:56 47.2 °F 45.8 °F 30.17 in NNE 6.0 mph 12.0 mph 95% 0.18 in
21:01 47.2 °F 45.8 °F 30.18 in NNE 4.0 mph 8.0 mph 95% 0.22 in
21:06 47.2 °F 45.8 °F 30.17 in NE 10.0 mph 13.0 mph 95% 0.21 in
21:11 47.2 °F 45.8 °F 30.18 in North 9.0 mph 9.0 mph 95% 0.31 in
21:17 47.2 °F 45.8 °F 30.18 in North 4.0 mph 11.0 mph 95% 0.23 in
21:22 47.3 °F 45.9 °F 30.18 in North 8.0 mph 12.0 mph 95% 0.16 in
21:27 47.3 °F 45.9 °F 30.18 in NNW 11.0 mph 12.0 mph 95% 0.20 in
21:32 47.3 °F 45.9 °F 30.17 in North 8.0 mph 11.0 mph 95% 0.23 in
21:37 47.3 °F 46.2 °F 30.17 in NNW 10.0 mph 12.0 mph 96% 0.21 in
21:42 47.2 °F 46.1 °F 30.16 in North 6.0 mph 11.0 mph 96% 0.16 in
21:47 47.1 °F 46.0 °F 30.16 in NNE 10.0 mph 14.0 mph 96% 0.19 in
21:52 47.1 °F 45.7 °F 30.15 in NE 11.0 mph 12.0 mph 95% 0.15 in
21:57 47.1 °F 46.0 °F 30.15 in NNE 10.0 mph 13.0 mph 96% 0.17 in
22:02 47.1 °F 46.0 °F 30.16 in NNE 4.0 mph 11.0 mph 96% 0.17 in
22:07 47.1 °F 46.0 °F 30.16 in NNE 5.0 mph 11.0 mph 96% 0.13 in
22:12 47.1 °F 46.0 °F 30.17 in NNE 6.0 mph 10.0 mph 96% 0.18 in
22:17 47.1 °F 46.0 °F 30.17 in NNE 3.0 mph 7.0 mph 96% 0.13 in
22:22 47.2 °F 46.1 °F 30.17 in North 7.0 mph 8.0 mph 96% 0.13 in
22:27 47.3 °F 46.2 °F 30.16 in NE 9.0 mph 10.0 mph 96% 0.13 in
22:32 47.4 °F 46.3 °F 30.16 in NE 9.0 mph 10.0 mph 96% 0.15 in
22:37 47.4 °F 46.3 °F 30.16 in NNE 9.0 mph 9.0 mph 96% 0.11 in
22:42 47.5 °F 46.4 °F 30.17 in North 5.0 mph 9.0 mph 96% 0.11 in
22:47 47.5 °F 46.4 °F 30.18 in North 5.0 mph 6.0 mph 96% 0.11 in
22:52 47.5 °F 46.4 °F 30.18 in North 7.0 mph 8.0 mph 96% 0.11 in
22:58 47.4 °F 46.3 °F 30.19 in NNW 4.0 mph 9.0 mph 96% 0.11 in
23:03 47.4 °F 46.3 °F 30.19 in North 7.0 mph 11.0 mph 96% 0.08 in
23:08 47.3 °F 46.2 °F 30.21 in NNW 9.0 mph 12.0 mph 96% 0.20 in
23:13 47.0 °F 45.9 °F 30.22 in NNW 15.0 mph 15.0 mph 96% 0.19 in
23:18 46.5 °F 45.2 °F 30.22 in NNW 8.0 mph 22.0 mph 95% 0.15 in
23:23 46.0 °F 44.7 °F 30.22 in NNW 6.0 mph 20.0 mph 95% 0.14 in
23:28 45.5 °F 44.2 °F 30.22 in NNE 13.0 mph 19.0 mph 95% 0.14 in
23:33 44.9 °F 43.6 °F 30.22 in NW 8.0 mph 14.0 mph 95% 0.15 in
23:38 44.6 °F 43.3 °F 30.23 in NNW 11.0 mph 12.0 mph 95% 0.08 in
23:43 44.3 °F 43.0 °F 30.23 in NNW 7.0 mph 12.0 mph 95% 0.12 in
23:48 43.6 °F 42.3 °F 30.22 in NNE 7.0 mph 14.0 mph 95% 0.15 in
23:53 43.1 °F 41.8 °F 30.22 in NNE 4.0 mph 10.0 mph 95% 0.21 in
23:58 42.8 °F 41.5 °F 30.22 in NW 6.0 mph 12.0 mph 95% 0.31 in
Compliments of Weather Underground